W8VMX Weather Reports


time (UTC)temp
F
wind
direction
speed
knots
gust
knots
rain 1hr
in
rain 24hr
in
rain mn
in
humidity
%
barometer
mb
20260505102026 57 0 0.0 1.7 0.19 0.20 0.20 93 1010.0
20260505101546 57 0 0.0 3.5 0.20 0.20 0.20 93 1010.1
20260505101027 57 0 0.9 3.5 0.18 0.18 0.18 92 1010.2
20260505100529 58 0 0.0 5.2 0.14 0.14 0.14 92 1010.3
20260505100039 58 0 0.0 5.2 0.11 0.11 0.11 91 1010.6
20260505095525 58 263 0.0 3.5 0.08 0.08 0.08 90 1010.5
20260505095026 58 0 0.0 3.5 0.06 0.06 0.06 90 1010.5
20260505094538 59 0 0.0 3.5 0.05 0.05 0.05 89 1010.6
20260505094026 59 0 0.9 3.5 0.04 0.04 0.04 88 1010.7
20260505093528 60 0 0.0 2.6 0.03 0.03 0.03 86 1010.5
20260505093042 60 0 0.0 3.5 0.03 0.03 0.03 84 1010.2
20260505092526 61 243 0.0 3.5 0.02 0.02 0.02 83 1010.1
20260505092026 62 0 0.0 2.6 0.01 0.01 0.01 80 1010.0
20260505091541 63 0 0.0 2.6 0.00 0.00 0.00 76 1009.4
20260505091027 64 0 0.0 2.6 0.00 0.00 0.00 72 1009.4
20260505090528 64 0 0.0 3.5 0.00 0.00 0.00 70 1009.5
20260505090054 64 0 0.9 3.5 0.00 0.00 0.00 67 1009.1
20260505085525 64 193 0.9 4.3 0.00 0.00 0.00 66 1008.9
20260505085024 64 172 0.9 4.3 0.00 0.00 0.00 66 1008.8
20260505084548 64 213 1.7 4.3 0.00 0.00 0.00 67 1008.7
20260505084024 64 187 0.9 5.2 0.00 0.00 0.00 66 1008.7
20260505083524 64 180 1.7 5.2 0.00 0.00 0.00 66 1008.7
20260505083038 64 189 0.9 4.3 0.00 0.00 0.00 66 1008.6
20260505082524 64 176 1.7 6.1 0.00 0.00 0.00 67 1008.5
20260505082024 64 175 1.7 6.1 0.00 0.00 0.00 66 1008.1
20260505081543 64 182 1.7 5.2 0.00 0.00 0.00 66 1008.1
20260505081029 64 206 0.9 5.2 0.00 0.00 0.00 67 1007.9
20260505080527 64 159 0.0 3.5 0.00 0.00 0.00 67 1007.9
20260505080042 64 192 0.9 2.6 0.00 0.00 0.00 66 1007.9
20260505075527 65 196 0.0 2.6 0.00 0.00 0.00 65 1008.0
20260505075026 65 175 0.9 4.3 0.00 0.00 0.00 65 1008.2
20260505074539 65 163 0.9 6.1 0.00 0.00 0.00 64 1008.1
20260505074025 65 188 1.7 6.1 0.00 0.00 0.00 64 1008.2
20260505073525 65 238 1.7 6.1 0.00 0.00 0.00 64 1008.1
20260505073041 65 175 0.9 5.2 0.00 0.00 0.00 64 1007.9
20260505072523 65 187 2.6 6.1 0.00 0.00 0.00 63 1007.8
20260505072024 66 184 2.6 9.6 0.00 0.00 0.00 64 1007.7
20260505071537 66 190 2.6 9.6 0.00 0.00 0.00 63 1007.5
20260505071025 66 0 2.6 6.1 0.00 0.00 0.00 63 1007.6
20260505070525 66 203 1.7 5.2 0.00 0.00 0.00 64 1007.6
20260505070043 66 186 2.6 6.1 0.00 0.00 0.00 63 1007.6
20260505065526 66 167 1.7 7.8 0.00 0.00 0.00 64 1007.7
20260505065022 66 210 3.5 9.6 0.00 0.00 0.00 63 1007.7
20260505064541 66 188 3.5 9.6 0.00 0.00 0.00 63 1007.6
20260505064024 66 234 2.6 7.0 0.00 0.00 0.00 64 1007.6
20260505063526 66 178 2.6 8.7 0.00 0.00 0.00 62 1007.6
20260505063040 66 191 3.5 11.3 0.00 0.00 0.00 63 1007.6
20260505062528 66 186 2.6 11.3 0.00 0.00 0.00 63 1007.6
20260505062024 66 184 2.6 7.8 0.00 0.00 0.00 64 1007.6
20260505061540 66 228 1.7 10.4 0.00 0.00 0.00 63 1007.6
20260505061025 66 180 3.5 10.4 0.00 0.00 0.00 62 1007.7
20260505060524 67 186 2.6 11.3 0.00 0.00 0.00 62 1007.6
20260505060040 67 221 3.5 12.2 0.00 0.00 0.00 62 1007.5
20260505055524 67 178 4.3 12.2 0.00 0.00 0.00 62 1007.5
20260505055023 67 175 2.6 7.8 0.00 0.00 0.00 62 1007.3
20260505054541 67 171 3.5 8.7 0.00 0.00 0.00 62 1007.2
20260505054026 67 177 2.6 13.0 0.00 0.00 0.00 63 1007.1
20260505053522 67 189 3.5 13.0 0.00 0.00 0.00 63 1007.0
20260505053045 67 161 2.6 9.6 0.00 0.00 0.00 62 1007.1
20260505052523 67 188 3.5 9.6 0.00 0.00 0.00 62 1006.9
20260505052023 67 229 3.5 7.8 0.00 0.00 0.00 61 1006.9
20260505051538 68 200 2.6 8.7 0.00 0.00 0.00 61 1007.0
20260505051022 68 189 3.5 8.7 0.00 0.00 0.00 60 1006.8
20260505050527 68 179 3.5 9.6 0.00 0.00 0.00 60 1007.0
20260505041537 67 217 3.5 9.6 0.00 0.00 0.00 63 1007.6
20260505041025 68 210 1.7 7.0 0.00 0.00 0.00 64 1007.6
20260505040524 68 190 1.7 7.0 0.00 0.00 0.00 62 1007.6
20260505040042 68 194 3.5 6.1 0.00 0.00 0.00 62 1007.7
20260505035525 68 236 2.6 8.7 0.00 0.00 0.00 63 1007.8
20260505035024 68 193 2.6 9.6 0.00 0.00 0.00 62 1007.8
20260505034537 68 181 3.5 10.4 0.00 0.00 0.00 61 1007.9
20260505034023 68 182 3.5 10.4 0.00 0.00 0.00 62 1007.9
20260505033523 68 186 1.7 7.0 0.00 0.00 0.00 64 1007.7
20260505033100 68 181 2.6 7.0 0.00 0.00 0.00 64 1007.8
20260505032525 68 184 1.7 6.1 0.00 0.00 0.00 64 1007.7
20260505032022 68 176 1.7 6.1 0.00 0.00 0.00 65 1007.7
20260505031539 68 214 1.7 6.1 0.00 0.00 0.00 64 1007.6
20260505031022 68 203 1.7 6.1 0.00 0.00 0.00 63 1007.7
20260505030522 68 189 1.7 7.8 0.00 0.00 0.00 63 1007.7
20260505030037 68 181 2.6 7.8 0.00 0.00 0.00 63 1007.6
20260505025526 68 203 2.6 7.8 0.00 0.00 0.00 63 1007.5
20260505025023 68 222 1.7 7.8 0.00 0.00 0.00 63 1007.4
20260505024536 68 195 2.6 6.1 0.00 0.00 0.00 64 1007.4
20260505024023 68 205 2.6 6.1 0.00 0.00 0.00 63 1007.2
20260505023526 68 180 1.7 7.0 0.00 0.00 0.00 65 1007.1
20260505023049 68 189 1.7 7.0 0.00 0.00 0.00 66 1007.1
20260505022527 67 182 2.6 7.0 0.00 0.00 0.00 64 1007.2
20260505022023 67 208 1.7 7.0 0.00 0.00 0.00 66 1007.0
20260505021537 67 196 1.7 7.0 0.00 0.00 0.00 66 1007.0
20260505021027 67 184 0.9 4.3 0.00 0.00 0.00 66 1006.9
20260505020525 67 190 1.7 4.3 0.00 0.00 0.00 66 1006.8
20260505020041 67 188 1.7 4.3 0.00 0.00 0.00 66 1006.6
20260505015523 67 203 0.9 3.5 0.00 0.00 0.00 67 1006.6
20260505015026 67 194 0.0 3.5 0.00 0.00 0.00 67 1006.5
20260505014538 67 215 0.9 1.7 0.00 0.00 0.00 67 1006.5
20260505014023 67 0 0.0 1.7 0.00 0.00 0.00 67 1006.4
20260505013525 67 199 0.0 1.7 0.00 0.00 0.00 66 1006.4
20260505013038 67 205 0.9 3.5 0.00 0.00 0.00 65 1006.4
20260505012522 68 188 0.9 3.5 0.00 0.00 0.00 65 1006.5
20260505012023 68 194 0.0 2.6 0.00 0.00 0.00 65 1006.4
20260505011540 68 193 0.9 2.6 0.00 0.00 0.00 65 1006.3
20260505011023 68 191 0.0 2.6 0.00 0.00 0.00 65 1006.3
20260505010523 68 0 0.9 2.6 0.00 0.00 0.00 64 1006.3
20260505010042 69 215 0.9 3.5 0.00 0.00 0.00 63 1006.3
20260505005523 69 238 1.7 3.5 0.00 0.00 0.00 63 1006.3
20260505005023 69 0 0.0 0.0 0.00 0.00 0.00 63 1006.2
20260505004545 69 0 0.0 2.6 0.00 0.00 0.00 63 1006.3
20260505004023 69 0 0.0 4.3 0.00 0.00 0.00 61 1006.4
20260505003522 70 192 0.9 4.3 0.00 0.00 0.00 61 1006.3
20260505003039 70 188 0.9 2.6 0.00 0.00 0.00 62 1006.2
20260505002522 70 190 0.9 2.6 0.00 0.00 0.00 61 1006.2
20260505002023 70 204 0.9 5.2 0.00 0.00 0.00 60 1006.3
20260505001539 71 195 0.9 5.2 0.00 0.00 0.00 59 1006.4
20260505001022 71 183 1.7 5.2 0.00 0.00 0.00 58 1006.3
20260505000526 71 174 1.7 4.3 0.00 0.00 0.00 58 1006.4
20260505000037 72 184 1.7 5.2 0.00 0.00 0.00 57 1006.5
20260504235523 72 184 1.7 5.2 0.00 0.00 0.00 57 1006.4
20260504235023 72 178 1.7 5.2 0.00 0.00 0.00 56 1006.6
20260504234558 73 206 1.7 7.8 0.00 0.00 0.00 55 1006.5
20260504234023 73 174 1.7 8.7 0.00 0.00 0.00 55 1006.7
20260504233523 73 202 3.5 8.7 0.00 0.00 0.00 53 1006.9
20260504233039 73 207 1.7 9.6 0.00 0.00 0.00 55 1006.9
20260504232523 73 173 3.5 9.6 0.00 0.00 0.00 53 1007.0
20260504232022 73 211 2.6 7.8 0.00 0.00 0.00 53 1007.1
20260504231549 74 180 1.7 11.3 0.00 0.00 0.00 54 1007.2
20260504231022 74 252 1.7 11.3 0.00 0.00 0.00 50 1007.2
20260504230524 75 205 2.6 9.6 0.00 0.00 0.00 50 1007.3
20260504230038 75 175 3.5 10.4 0.00 0.00 0.00 49 1007.3
20260504225528 75 234 4.3 11.3 0.00 0.00 0.00 49 1007.4
20260504225024 75 223 2.6 14.8 0.00 0.00 0.00 52 1007.3
20260504224538 75 182 3.5 14.8 0.00 0.00 0.00 49 1007.3
20260504224022 75 165 4.3 14.8 0.00 0.00 0.00 50 1007.3
20260504223524 75 175 4.3 19.1 0.00 0.00 0.00 51 1007.3
20260504223038 74 172 3.5 19.1 0.00 0.00 0.00 52 1007.3
20260504222526 74 170 3.5 8.7 0.00 0.00 0.00 53 1007.3
20260504222022 74 191 3.5 8.7 0.00 0.00 0.00 57 1007.4
20260504221539 74 199 1.7 4.3 0.00 0.00 0.00 57 1007.3
20260504221027 74 197 1.7 4.3 0.00 0.00 0.00 56 1007.4
20260504220523 74 0 0.9 2.6 0.00 0.00 0.00 59 1007.4
20260504220039 74 184 0.9 1.7 0.00 0.00 0.00 60 1007.3
20260504215523 74 0 0.0 2.6 0.00 0.00 0.00 61 1007.2
20260504215023 74 196 0.9 2.6 0.00 0.00 0.00 58 1007.4
20260504214540 74 0 0.0 3.5 0.00 0.00 0.00 58 1007.6
20260504214024 75 175 0.0 4.3 0.00 0.00 0.00 57 1007.6
20260504213526 75 187 0.9 5.2 0.00 0.00 0.00 54 1007.9
20260504213037 75 196 1.7 7.0 0.00 0.00 0.00 51 1007.8
20260504212525 76 181 1.7 7.0 0.00 0.00 0.00 54 1007.9
20260504212022 76 205 2.6 6.1 0.00 0.00 0.00 51 1007.9
20260504211539 76 136 0.9 6.1 0.00 0.00 0.00 52 1008.0
20260504211025 76 150 1.7 6.1 0.00 0.00 0.00 51 1008.1
20260504210525 76 250 1.7 6.1 0.00 0.00 0.00 51 1008.2
20260504210042 76 201 0.9 7.8 0.00 0.00 0.00 51 1008.2
20260504205524 76 223 0.9 7.8 0.00 0.00 0.00 53 1008.1
20260504205022 76 211 0.9 9.6 0.00 0.00 0.00 51 1008.2
20260504204618 75 190 2.6 9.6 0.00 0.00 0.00 51 1008.1
20260504204023 75 226 2.6 9.6 0.00 0.00 0.00 50 1008.2
20260504203524 76 184 3.5 9.6 0.00 0.00 0.00 50 1008.2
20260504203039 76 156 1.7 10.4 0.00 0.00 0.00 53 1008.3
20260504202523 75 185 3.5 10.4 0.00 0.00 0.00 55 1008.4
20260504202024 74 200 1.7 7.8 0.00 0.00 0.00 57 1008.5
20260504201539 74 183 2.6 7.8 0.00 0.00 0.00 58 1008.6
20260504201022 73 198 2.6 9.6 0.00 0.00 0.00 56 1008.7
20260504200524 74 153 3.5 9.6 0.00 0.00 0.00 55 1008.7
20260504200040 74 177 3.5 9.6 0.00 0.00 0.00 56 1008.8
20260504195526 74 187 2.6 9.6 0.00 0.00 0.00 58 1008.8
20260504195023 74 212 3.5 7.8 0.00 0.00 0.00 55 1009.0
20260504194546 74 211 0.9 7.8 0.00 0.00 0.00 61 1009.0
20260504194025 73 212 2.6 7.8 0.00 0.00 0.00 57 1009.1
20260504193522 73 181 1.7 8.7 0.00 0.00 0.00 58 1009.1
20260504193036 73 182 2.6 8.7 0.00 0.00 0.00 60 1009.3
20260504192526 73 178 1.7 9.6 0.00 0.00 0.00 60 1009.3
20260504192023 72 234 4.3 9.6 0.00 0.00 0.00 57 1009.5
20260504191543 71 186 3.5 13.9 0.00 0.00 0.00 62 1009.6
20260504191023 71 184 2.6 13.9 0.00 0.00 0.00 63 1009.5
20260504190523 71 182 1.7 8.7 0.00 0.00 0.00 63 1009.4
20260504190040 71 184 2.6 7.0 0.00 0.00 0.00 63 1009.6
20260504185522 70 165 1.7 6.1 0.00 0.00 0.00 64 1009.8
20260504185024 69 149 1.7 5.2 0.00 0.00 0.00 68 1009.8
20260504184548 69 183 1.7 5.2 0.00 0.00 0.00 65 1009.8
20260504184027 69 200 0.9 5.2 0.00 0.00 0.00 65 1009.9
20260504183526 69 170 0.9 7.0 0.00 0.00 0.00 66 1009.9
20260504183038 69 183 1.7 7.0 0.00 0.00 0.00 65 1009.9
20260504182528 69 182 2.6 7.0 0.00 0.00 0.00 65 1009.8
20260504182026 69 132 2.6 10.4 0.00 0.00 0.00 64 1009.9
20260504181538 69 231 3.5 10.4 0.00 0.00 0.00 64 1009.9
20260504181025 69 182 3.5 7.8 0.00 0.00 0.00 64 1009.7
20260504180523 69 211 1.7 5.2 0.00 0.00 0.00 64 1009.7
20260504180037 69 186 0.9 11.3 0.00 0.00 0.00 65 1009.7
20260504175524 69 175 1.7 11.3 0.00 0.00 0.00 63 1009.5
20260504175027 70 205 3.5 9.6 0.00 0.00 0.00 61 1009.5
20260504174540 70 188 2.6 10.4 0.00 0.00 0.00 64 1009.4
20260504174025 70 150 4.3 10.4 0.00 0.00 0.00 61 1009.2
20260504173529 70 209 3.5 10.4 0.00 0.00 0.00 62 1009.2
20260504173038 70 159 2.6 7.8 0.00 0.00 0.00 63 1009.1
20260504172525 70 279 2.6 9.6 0.00 0.00 0.00 65 1009.2
20260504172025 69 189 4.3 9.6 0.00 0.00 0.00 63 1009.2
20260504171544 69 183 4.3 9.6 0.00 0.00 0.00 62 1009.3
20260504171026 68 185 4.3 10.4 0.00 0.00 0.00 63 1009.4
20260504170526 68 146 2.6 10.4 0.00 0.00 0.00 65 1009.5
20260504151027 64 232 1.7 6.1 0.00 0.00 0.00 69 1010.3
20260504150525 63 225 2.6 7.8 0.00 0.00 0.00 69 1010.2
20260504141029 60 180 0.9 5.2 0.00 0.00 0.00 74 1010.3
20260504140527 60 242 1.7 6.1 0.00 0.00 0.00 71 1010.3
20260504130526 56 216 1.7 5.2 0.00 0.00 0.00 74 1010.8
20260504110526 54 178 1.7 6.1 0.00 0.00 0.00 70 1010.4